Camarillo, CA

10:40 AM PDT on October 18, 2017 (GMT -0700)
Camarillo

Weather History for KCMA - February, 2012

Change the Weather History Date:

Sunday, February 12, 2012

  Actual Average Record
Temperature  
Mean Temperature 53 °F 54 °F  
Max Temperature 62 °F 65 °F 87 °F (1971)
Min Temperature 43 °F 42 °F 32 °F (1966)
Degree Days  
Heating Degree Days 12 12  
Month to date heating degree days 63 138  
Since 1 July heating degree days 872 1157  
Cooling Degree Days 0 0  
Month to date cooling degree days 0 0  
Year to date cooling degree days 10 7  
Growing Degree Days 3 (Base 50)    
Moisture  
Dew Point 47 °F    
Average Humidity 75    
Maximum Humidity 93    
Minimum Humidity 56    
Precipitation  
Precipitation 0.00 in 0.14 in 2.92 in (2003)
Month to date precipitation T 1.34  
Year to date precipitation 1.60 4.81  
Since 1 July precipitation 4.63  
Sea Level Pressure  
Sea Level Pressure 30.01 in    
Wind  
Wind Speed 5 mph (SE)    
Max Wind Speed 13 mph    
Max Gust Speed 17 mph    
Visibility 10 miles    
Events      
T = Trace of Precipitation, MM = Missing Value Source: NWS Daily Summary

Daily Weather History Graph

Daily Weather History Graph

Search for Another Location

Airport or City:

Trip Planner

Search our weather history database for the weather conditions in past years. The results will help you decide how hot, cold, wet, or windy it might be!

Date:

Astronomy

Feb. 12, 2012 Rise Set
Actual Time 6:44 AM PST 5:36 PM PST
Civil Twilight 6:18 AM PST 6:02 PM PST
Nautical Twilight 5:49 AM PST 6:32 PM PST
Astronomical Twilight 5:20 AM PST 7:01 PM PST
Moon 11:20 PM PST (2/12) 9:24 AM PST (2/12)
Length of Visible Light 11h 43m
Length of Day
10h 52m
Waning Gibbous, 71% of the Moon is Illuminated
Feb 12
Waning Gibbous
Feb 14
Last Quarter
Feb 21
New
Feb 29
First Quarter
Mar 8
Full

Hourly Weather History & Observations

Time (PST) Temp. Windchill Dew Point Humidity Pressure Visibility Wind Dir Wind Speed Gust Speed Precip Events Conditions
12:55 AM 46.9 °F - 44.1 °F 90% 30.00 in 10.0 mi Calm Calm - N/A   Clear
1:55 AM 48.9 °F - 45.0 °F 86% 29.98 in 10.0 mi ENE 4.6 mph - N/A   Clear
2:55 AM 45.0 °F - 42.1 °F 90% 29.98 in 10.0 mi Calm Calm - N/A   Clear
3:55 AM 46.9 °F - 43.0 °F 86% 29.98 in 10.0 mi East 4.6 mph - N/A   Clear
4:50 AM 44.6 °F 43.1 °F 41.0 °F 87% 29.97 in 10.0 mi ENE 3.5 mph - N/A   Mostly Cloudy
4:55 AM 46.0 °F 43.1 °F 42.1 °F 86% 30.00 in 10.0 mi ENE 5.8 mph - N/A   Mostly Cloudy
5:55 AM 48.9 °F - 44.1 °F 83% 29.99 in 10.0 mi ENE 9.2 mph - N/A   Mostly Cloudy
6:08 AM 48.2 °F - 44.6 °F 87% 29.95 in 10.0 mi ENE 10.4 mph - N/A   Scattered Clouds
6:55 AM 48.0 °F - 44.1 °F 86% 30.01 in 9.0 mi ENE 9.2 mph - N/A   Clear
7:55 AM 52.0 °F - 46.0 °F 80% 30.03 in 9.0 mi NNE 4.6 mph - N/A   Partly Cloudy
8:55 AM 55.9 °F - 46.9 °F 72% 30.05 in 10.0 mi Calm Calm - N/A   Partly Cloudy
9:55 AM 57.9 °F - 48.0 °F 70% 30.06 in 10.0 mi SW 5.8 mph - N/A   Partly Cloudy
10:55 AM 59.0 °F - 48.9 °F 69% 30.05 in 10.0 mi Calm Calm - N/A   Scattered Clouds
11:55 AM 60.1 °F - 48.0 °F 64% 30.04 in 10.0 mi South 6.9 mph - N/A   Partly Cloudy
12:55 PM 62.1 °F - 46.9 °F 58% 30.01 in 10.0 mi SSW 9.2 mph - N/A   Partly Cloudy
1:55 PM 62.1 °F - 46.9 °F 58% 30.00 in 10.0 mi SW 11.5 mph - N/A   Clear
2:55 PM 60.1 °F - 48.9 °F 67% 29.99 in 10.0 mi WSW 8.1 mph - N/A   Clear
3:55 PM 60.1 °F - 48.0 °F 64% 29.99 in 10.0 mi WSW 8.1 mph - N/A   Clear
4:55 PM 59.0 °F - 50.0 °F 72% 29.99 in 10.0 mi West 9.2 mph - N/A   Clear
5:55 PM 55.9 °F - 50.0 °F 80% 30.01 in 10.0 mi WSW 4.6 mph - N/A   Clear
6:55 PM 54.0 °F - 48.9 °F 83% 30.02 in 10.0 mi SE 3.5 mph - N/A   Scattered Clouds
7:02 PM 53.6 °F - 50.0 °F 88% 29.99 in 10.0 mi SE 4.6 mph - N/A   Overcast
7:28 PM 55.4 °F - 50.0 °F 82% 30.00 in 10.0 mi SSE 5.8 mph - N/A   Overcast
7:35 PM 55.4 °F - 50.0 °F 82% 30.00 in 10.0 mi SE 4.6 mph - N/A   Overcast
7:55 PM 55.0 °F - 50.0 °F 83% 30.03 in 10.0 mi SSE 3.5 mph - N/A   Overcast
8:55 PM 55.9 °F - 50.0 °F 80% 30.04 in 10.0 mi East 3.5 mph - N/A   Overcast
9:55 PM 55.9 °F - 50.0 °F 80% 30.05 in 10.0 mi Calm Calm - N/A   Overcast
10:55 PM 55.9 °F - 48.9 °F 77% 30.05 in 10.0 mi Calm Calm - N/A   Overcast
11:55 PM 55.0 °F - 48.0 °F 77% 30.05 in 10.0 mi East 5.8 mph - N/A   Overcast